This is the latest recevied weather packets stored in our database for station/object IZ5MJO-13. If no packets are shown the sender has not sent any weather packets the latest 10 day(s).
| Time | Temp. | Humidity | Pressure | Rain* | Wind** | Luminosity | Snow |
|---|---|---|---|---|---|---|---|
| 1777965231 | 12.78° C | 75% | 1003.1 hPa | - | - | - | - |
| 1777964331 | 12.78° C | 73% | 1003.2 hPa | - | - | - | - |
| 1777963430 | 12.78° C | 76% | 1003.3 hPa | - | - | - | - |
| 1777962530 | 12.22° C | 74% | 1003.1 hPa | - | - | - | - |
| 1777961630 | 12.22° C | 73% | 1003.2 hPa | - | - | - | - |
| 1777960730 | 12.22° C | 71% | 1003.1 hPa | - | - | - | - |
| 1777959830 | 12.22° C | 76% | 1003 hPa | - | - | - | - |
| 1777958929 | 11.67° C | 75% | 1002.9 hPa | - | - | - | - |
| 1777958029 | 11.67° C | 74% | 1002.8 hPa | - | - | - | - |
| 1777957129 | 11.67° C | 72% | 1002.9 hPa | - | - | - | - |
| 1777956229 | 11.67° C | 75% | 1002.9 hPa | - | - | - | - |
| 1777955329 | 11.67° C | 72% | 1002.7 hPa | - | - | - | - |
| 1777954428 | 11.11° C | 77% | 1002.7 hPa | - | - | - | - |
| 1777953528 | 11.11° C | 75% | 1002.7 hPa | - | - | - | - |
| 1777952628 | 11.11° C | 63% | 1003.1 hPa | - | - | - | - |
| 1777951728 | 11.67° C | 67% | 1003.2 hPa | - | - | - | - |
| 1777950827 | 11.67° C | 71% | 1003.3 hPa | - | - | - | - |
| 1777950178 | 11.67° C | 71% | 1003.5 hPa | - | - | - | - |
| 1777950171 | 11.67° C | 65% | 1003.6 hPa | - | - | - | - |
| 1777949927 | 11.67° C | 71% | 1003.5 hPa | - | - | - | - |
| 1777949623 | 11.67° C | 70% | 1003.9 hPa | - | - | - | - |
| 1777949027 | 11.67° C | 65% | 1003.6 hPa | - | - | - | - |
| 1777948127 | 11.67° C | 70% | 1003.9 hPa | - | - | - | - |
| 1777947233 | 11.67° C | 71% | 1004 hPa | - | - | - | - |
| 1777946333 | 11.67° C | 71% | 1004.1 hPa | - | - | - | - |
* Rain since midnight (hover to see other rain measurements)
** Current wind speed in m/s (hover to see current wind gust speed)